• In Schweiz
  • Länderverzeichnis
  • Für 7 Tage
  • Wassertemperatur
  • Satellitenkarten
  • Wetterkarte
  • Widgets
  • user-avatar
    Anmelden

    Stündliche Wetter Siempang

    Heute, 16 Oktober, Dienstag

    Zeit Temperatur Niederschläge Wind Luftdruck Luftfeuchtigkeit
    00:00 +25°C° 0 mm 0 m/S 753 mmHg 86%
    01:00 +25°C° 0 mm 0 m/S 753 mmHg 88%
    02:00 +24°C° 0 mm 0 m/S 753 mmHg 90%
    03:00 +24°C° 0 mm 0 m/S 753 mmHg 91%
    04:00 +24°C° 0 mm 0 m/S 752 mmHg 92%
    05:00 +24°C° 0 mm 0 m/S 753 mmHg 90%
    06:00 +25°C° 0 mm 0 m/S 753 mmHg 88%
    07:00 +27°C° 0 mm 0 m/S 753 mmHg 84%
    08:00 +28°C° 0.8 mm 0 m/S 753 mmHg 78%
    09:00 +30°C° 0.8 mm 0 m/S 753 mmHg 72%
    10:00 +34°C° 0.8 mm 1 m/S 753 mmHg 66%
    11:00 +34°C° 0.8 mm 1 m/S 752 mmHg 64%
    12:00 +35°C° 0.8 mm 1 m/S 751 mmHg 61%
    13:00 +36°C° 0.8 mm 1 m/S 751 mmHg 58%
    14:00 +35°C° 0.4 mm 1 m/S 750 mmHg 60%
    15:00 +35°C° 0.4 mm 1 m/S 750 mmHg 62%
    16:00 +34°C° 0.4 mm 1 m/S 750 mmHg 63%
    17:00 +30°C° 0.5 mm 0 m/S 750 mmHg 70%
    18:00 +29°C° 0.5 mm 0 m/S 750 mmHg 76%
    19:00 +27°C° 0.5 mm 0 m/S 750 mmHg 82%
    20:00 +26°C° 0.6 mm 0 m/S 751 mmHg 84%
    21:00 +26°C° 0.6 mm 0 m/S 752 mmHg 85%
    22:00 +26°C° 0.6 mm 0 m/S 752 mmHg 87%
    23:00 +25°C° 0.4 mm 0 m/S 752 mmHg 88%

    Morgen, 17 Oktober, Mittwoch

    Zeit Temperatur Niederschläge Wind Luftdruck Luftfeuchtigkeit
    00:00 +25°C° 0.4 mm 0 m/S 752 mmHg 89%
    01:00 +25°C° 0.4 mm 0 m/S 752 mmHg 91%
    02:00 +24°C° 1.1 mm 0 m/S 752 mmHg 92%
    03:00 +24°C° 1.1 mm 0 m/S 752 mmHg 93%
    04:00 +24°C° 1.1 mm 0 m/S 751 mmHg 95%
    05:00 +24°C° 1.1 mm 0 m/S 752 mmHg 94%
    06:00 +25°C° 1.1 mm 0 m/S 752 mmHg 94%
    07:00 +27°C° 1.1 mm 1 m/S 752 mmHg 93%
    08:00 +29°C° 0.7 mm 1 m/S 752 mmHg 85%
    09:00 +31°C° 0.7 mm 1 m/S 752 mmHg 76%
    10:00 +33°C° 0.7 mm 1 m/S 753 mmHg 67%
    11:00 +34°C° 0.6 mm 1 m/S 752 mmHg 64%
    12:00 +35°C° 0.6 mm 1 m/S 751 mmHg 60%
    13:00 +35°C° 0.6 mm 1 m/S 750 mmHg 57%
    14:00 +35°C° 0.6 mm 1 m/S 750 mmHg 60%
    15:00 +34°C° 0.6 mm 1 m/S 749 mmHg 62%
    16:00 +34°C° 0.6 mm 1 m/S 749 mmHg 65%
    17:00 +32°C° 0.5 mm 1 m/S 749 mmHg 71%
    18:00 +28°C° 0.5 mm 0 m/S 750 mmHg 77%
    19:00 +27°C° 0.5 mm 0 m/S 750 mmHg 82%
    20:00 +26°C° 1 mm 0 m/S 751 mmHg 85%
    21:00 +26°C° 1 mm 0 m/S 751 mmHg 87%
    22:00 +25°C° 1 mm 0 m/S 752 mmHg 90%
    23:00 +25°C° 1.2 mm 0 m/S 751 mmHg 91%

    übermorgen, 18 Oktober, Donnerstag

    Zeit Temperatur Niederschläge Wind Luftdruck Luftfeuchtigkeit
    00:00 +25°C° 1.2 mm 0 m/S 751 mmHg 93%
    01:00 +24°C° 1.2 mm 0 m/S 751 mmHg 94%
    02:00 +24°C° 0.7 mm 0 m/S 751 mmHg 95%
    03:00 +24°C° 0.7 mm 0 m/S 750 mmHg 95%
    04:00 +24°C° 0.7 mm 0 m/S 750 mmHg 96%
    05:00 +24°C° 0.2 mm 0 m/S 751 mmHg 95%
    06:00 +24°C° 0.2 mm 0 m/S 751 mmHg 94%
    07:00 +25°C° 0.2 mm 0 m/S 752 mmHg 92%
    08:00 +29°C° 0.4 mm 1 m/S 752 mmHg 84%
    09:00 +31°C° 0.4 mm 1 m/S 752 mmHg 75%
    10:00 +33°C° 0.4 mm 1 m/S 753 mmHg 66%
    11:00 +34°C° 0.1 mm 1 m/S 752 mmHg 62%
    12:00 +35°C° 0.1 mm 1 m/S 751 mmHg 57%
    13:00 +36°C° 0.1 mm 1 m/S 750 mmHg 52%
    14:00 +33°C° 0.5 mm 0 m/S 750 mmHg 55%
    15:00 +33°C° 0.5 mm 0 m/S 749 mmHg 58%
    16:00 +32°C° 0.5 mm 0 m/S 749 mmHg 61%
    17:00 +30°C° 0.3 mm 0 m/S 750 mmHg 67%
    18:00 +28°C° 0.3 mm 0 m/S 750 mmHg 74%
    19:00 +27°C° 0.3 mm 0 m/S 751 mmHg 80%
    20:00 +26°C° 1.3 mm 0 m/S 751 mmHg 85%
    21:00 +25°C° 1.3 mm 0 m/S 752 mmHg 90%
    22:00 +24°C° 1.3 mm 0 m/S 753 mmHg 95%
    23:00 +24°C° 1.1 mm 0 m/S 752 mmHg 95%

    19 Oktober, Freitag

    Zeit Temperatur Niederschläge Wind Luftdruck Luftfeuchtigkeit
    00:00 +24°C° 1.1 mm 0 m/S 752 mmHg 96%
    01:00 +24°C° 1.1 mm 0 m/S 752 mmHg 96%
    02:00 +24°C° 0 mm 0 m/S 751 mmHg 96%
    03:00 +24°C° 0 mm 0 m/S 751 mmHg 96%
    04:00 +23°C° 0 mm 0 m/S 751 mmHg 96%
    05:00 +24°C° 0.1 mm 0 m/S 751 mmHg 95%
    06:00 +24°C° 0.1 mm 0 m/S 752 mmHg 94%
    07:00 +25°C° 0.1 mm 0 m/S 752 mmHg 93%
    08:00 +28°C° 0 mm 0 m/S 753 mmHg 80%
    09:00 +30°C° 0 mm 0 m/S 753 mmHg 68%
    10:00 +35°C° 0 mm 1 m/S 753 mmHg 55%
    11:00 +34°C° 0.1 mm 0 m/S 752 mmHg 53%
    12:00 +34°C° 0.1 mm 0 m/S 751 mmHg 50%
    13:00 +35°C° 0.1 mm 0 m/S 750 mmHg 48%
    14:00 +34°C° 0.1 mm 0 m/S 750 mmHg 51%
    15:00 +34°C° 0.1 mm 0 m/S 750 mmHg 54%
    16:00 +33°C° 0.1 mm 0 m/S 749 mmHg 57%
    17:00 +31°C° 0.4 mm 0 m/S 750 mmHg 63%
    18:00 +29°C° 0.4 mm 0 m/S 751 mmHg 69%
    19:00 +28°C° 0.4 mm 0 m/S 751 mmHg 75%
    20:00 +27°C° 2 mm 0 m/S 752 mmHg 79%
    21:00 +26°C° 2 mm 0 m/S 753 mmHg 84%
    22:00 +27°C° 2 mm 1 m/S 753 mmHg 89%
    23:00 +27°C° 1.6 mm 1 m/S 753 mmHg 90%

    20 Oktober, Samstag

    Zeit Temperatur Niederschläge Wind Luftdruck Luftfeuchtigkeit
    00:00 +26°C° 1.6 mm 1 m/S 753 mmHg 92%
    01:00 +26°C° 1.6 mm 1 m/S 753 mmHg 94%
    02:00 +26°C° 0.2 mm 1 m/S 753 mmHg 94%
    03:00 +23°C° 0.2 mm 0 m/S 753 mmHg 95%
    04:00 +23°C° 0.2 mm 0 m/S 752 mmHg 96%
    05:00 +24°C° 0 mm 0 m/S 753 mmHg 94%
    06:00 +24°C° 0 mm 0 m/S 753 mmHg 93%
    07:00 +24°C° 0 mm 0 m/S 754 mmHg 92%
    08:00 +27°C° 0 mm 0 m/S 754 mmHg 81%
    09:00 +29°C° 0 mm 0 m/S 754 mmHg 71%
    10:00 +33°C° 0 mm 1 m/S 754 mmHg 60%
    11:00 +34°C° 0 mm 1 m/S 753 mmHg 57%
    12:00 +33°C° 0 mm 0 m/S 752 mmHg 53%
    13:00 +34°C° 0 mm 0 m/S 751 mmHg 50%
    14:00 +34°C° 0.1 mm 0 m/S 751 mmHg 52%
    15:00 +33°C° 0.1 mm 0 m/S 750 mmHg 55%
    16:00 +32°C° 0.1 mm 0 m/S 750 mmHg 57%
    17:00 +30°C° 0.3 mm 0 m/S 751 mmHg 65%
    18:00 +29°C° 0.3 mm 0 m/S 752 mmHg 72%
    19:00 +27°C° 0.3 mm 0 m/S 752 mmHg 79%
    20:00 +26°C° 1.5 mm 0 m/S 753 mmHg 83%
    21:00 +25°C° 1.5 mm 0 m/S 753 mmHg 87%
    22:00 +25°C° 1.5 mm 0 m/S 754 mmHg 90%
    23:00 +25°C° 0.9 mm 0 m/S 754 mmHg 91%

    21 Oktober, Sonntag

    Zeit Temperatur Niederschläge Wind Luftdruck Luftfeuchtigkeit
    00:00 +24°C° 0.9 mm 0 m/S 753 mmHg 92%
    01:00 +24°C° 0.9 mm 0 m/S 753 mmHg 93%
    02:00 +24°C° 0.1 mm 0 m/S 753 mmHg 95%
    03:00 +23°C° 0.1 mm 0 m/S 753 mmHg 96%
    04:00 +23°C° 0.1 mm 0 m/S 753 mmHg 97%
    05:00 +24°C° 0 mm 0 m/S 753 mmHg 95%
    06:00 +24°C° 0 mm 0 m/S 754 mmHg 93%
    07:00 +25°C° 0 mm 0 m/S 754 mmHg 92%
    08:00 +27°C° 0 mm 0 m/S 754 mmHg 82%
    09:00 +29°C° 0 mm 0 m/S 754 mmHg 72%
    10:00 +33°C° 0 mm 1 m/S 754 mmHg 63%
    11:00 +34°C° 0 mm 1 m/S 753 mmHg 59%
    12:00 +34°C° 0 mm 1 m/S 752 mmHg 56%
    13:00 +33°C° 0 mm 0 m/S 751 mmHg 53%
    14:00 +33°C° 0.1 mm 0 m/S 751 mmHg 55%
    15:00 +32°C° 0.1 mm 0 m/S 750 mmHg 56%
    16:00 +32°C° 0.1 mm 0 m/S 750 mmHg 58%
    17:00 +30°C° 0.2 mm 0 m/S 751 mmHg 65%
    18:00 +28°C° 0.2 mm 0 m/S 751 mmHg 71%
    19:00 +26°C° 0.2 mm 0 m/S 752 mmHg 78%
    20:00 +26°C° 0.7 mm 0 m/S 752 mmHg 81%
    21:00 +25°C° 0.7 mm 0 m/S 753 mmHg 84%
    22:00 +25°C° 0.7 mm 0 m/S 753 mmHg 87%
    23:00 +25°C° 0.4 mm 0 m/S 753 mmHg 88%
    Mehr zeigen